METEOR 2-11 DEB, 40318

Orbit data source: Space-Track

METEOR 2-11 DEB, 40318 is space debris in LEO originally from a launch on Thu, 05 Jul 1984 UTC launched from the Plesetsk Missile And Space Complex (PKMTR). Debris objects in space refer to the collection of defunct objects orbiting the Earth. Examples of debris include non-operational satellites, rocket bodies, and fragments generated from explosions, collisions, or faulty payload assembly.

Loading next visibility...
Identifier
40318, 1984-072D
Orbit
LEO
Last TLE update
2 days ago
Origin
Manufacturer
Unknown
Mission
Spacecraft
Bus & Motor
Unknown
Mass
Unknown
Launch date (UTC)
1984-07-05 (41 years ago)
Launch vehicle
Unknown
Launch site
Plesetsk Missile And Space Complex (PKMTR)
Object type
Payload
Rocket body
Debris
Shape & HBR
Unknown
Radar Cross Section
Small (<0.1 m²)

Expand to show TLE details & history

TLE from 2 days ago
0 METEOR 2-11 DEB
1 40318U 84072D   25182.58978435  .00000179  00000-0  12243-3 0  9996
2 40318  82.5310 304.1172 0019270 291.8530  84.0381 13.94800858540438
Epoch: 2025-07-01T14:09Z
TLE epoch observation values (Epoch: 2025-07-01T14:09:17.367Z)
Latitude
15.95092°
Longitude
174.04798°
Altitude
912.672 km
Speed
7.398 km/s
True Right ascension
20h 25m 00s
True Declination
15° 51' 44"
Sunlit
Object was in full shadow at epoch
Visualization orbit readout
Latitude
38.12467°
Longitude
176.56221°
Altitude
922.126 km
Speed
7.392 km/s
Apparent Right ascension
23h 06m 09s
Apparent Declination
2° 59' 12"
Sunlit
Object is in daylight
Visualization observer readout
Local Sidereal Time
14:09:59
Azimuth
55.935° ENE
Elevation
-29.934°
Doppler factor
1
Orbital elements
Apogee altitude
923.035 km
Perigee altitude
894.95 km
Semi-major axis
7,287.13 km
Eccentricity
0.00193
Inclination
82.531°
RAAN
304.1172°
Arg. of periapsis
291.853°
True anomaly
Unknown
Mean anomaly
84.0381°
Eccentric anomaly
Unknown
Mean motion
3.48906 °/min
Orbital period
103.18 mins
BSTAR
0.00012243
Loading maneuver chart data...
Loading SW <> Apogee altitude chart data...
Loading historical data...
Loading historical data...
Loading historical data...
Loading historical data...
Loading historical data...
Loading historical data...
Loading historical data...

METEOR 2-11 DEB Visibility forecast

Observer location: undefined°, undefined°

Span
Click to sort rows by Start time (UTC) header in descending order
Start Az.
Max El. time (UTC)
Max El. Az.
Max El.
End time (UTC)
End Az.
7 mins2025-07-03 07:31:58.983Z124.464° SE2025-07-03 07:34:58.983Z90.151° ESE19.594°2025-07-03 07:38:58.983Z43.11° NE
9 mins2025-07-03 09:14:58.983Z212.225° SW2025-07-03 09:18:58.983Z281.529° WNW38.093°2025-07-03 09:23:58.983Z355.053° N
4 mins2025-07-03 18:20:58.983Z50.155° ENE2025-07-03 18:21:58.983Z61.382° ENE14.856°2025-07-03 18:24:58.983Z94.451° ESE
10 mins2025-07-03 20:02:58.983Z346.385° N2025-07-03 20:06:58.983Z283.272° WNW43.718°2025-07-03 20:12:58.983Z181.713° SSW
|